Location: Kershaw
(34.5481°N, 80.5823°W)
Time: 02:25:48
(UTC+00:00)

Explorer 7 - Pass Details

Date: 04 October 2022
Orbit: 481 x 665 km, 50.3° (Epoch: 30 November)

Event Time Altitude Azimuth Distance (km) Brightness Sun altitude
Rises 21:23:47 0° 314° (NW) 2,919 10.9 18.9°
Reaches altitude 10° 21:26:14 10° 320° (NW) 1,981 10.0 18.5°
Maximum altitude 21:30:38 48° 35° (NE) 774 7.5 17.6°
Drops below altitude 10° 21:34:46 10° 111° (ESE) 1,859 9.1 16.8°
Sets 21:37:00 0° 117° (ESE) 2,719 9.9 16.4°
